Weather in Petrushi

Russia / Amur Oblast     52°03′11″N   127°39′19″E
temp.,
°C
wind,
m/s
gust,
m/s
humid.,
%
clouds,
%
prec.,
mm/h
press.,
hPa
HPBL,
m
20 may, fri
fri2000:00+13sse51341100 0.0 1003454
03:00+13s61642100 0.0 1000635
06:00+12s355492 0.1 998194
09:00+15sw244462 0.1 998646
12:00+22wnw363899 0.3 9962652
15:00+19sw1344100 0.4 995264
18:00+14n2377100 2.3 997124
21:00+11ne2391100 9.8 100066
21 may, sat
sat2100:00+10nne3786100 0.0 1001203
03:00+8n2692100 0.0 1003145
06:00+9nnw259383 0.0 1004205
09:00+13nnw346897 0.0 1004951
12:00+15nnw355757 0.1 10051455
15:00+16nne564399 0.1 10051918
18:00+16nne48440 0.0 10051644
21:00+11ne225899 0.0 100717
22 may, sun
sun2200:00+9n226181 0.0 100816
03:00+7e227787 0.0 100821
06:00+7e247599 0.0 1009146
09:00+12ese3353100 0.0 1009554
12:00+14se4447100 0.0 10071026
15:00+15se3548100 0.1 10041507
18:00+10ese51089100 3.6 1004604
21:00+9ese61390100 6.1 1002665
23 may, mon
mon2300:00+9e51189100 0.5 1001481
03:00+8e4793100 0.7 1001476
06:00+7n4796100 0.3 1003582
09:00+7nnw5993100 0.3 1006605
12:00+9nnw4785100 0.1 1007589
15:00+14nne145596 0.1 10061290
18:00+15sse1151100 0.0 10071084
21:00+10ssw237080 0.0 100936
24 may, tue
tue2400:00+9se2278100 0.0 101019
03:00+9se3883100 0.1 1009264
06:00+8ene41172100 0.0 1010366
09:00+11ene61357100 0.0 1010629
12:00+15e71046100 0.0 10101203
15:00+14ene6951100 0.0 1010956
18:00+12ne61170100 0.3 1011653
21:00+10ene51287100 1.6 1013585